Cocoa Beach, FL

5:52 PM EDT on August 16, 2017 (GMT -0400)
Patrick Air Force Base

Weather History for KCOF - April, 2014

Change the Weather History Date:

Sunday, April 6, 2014

  Actual Average Record
Temperature  
Mean Temperature 76 °F -  
Max Temperature 83 °F 76 °F 86 °F (2009)
Min Temperature 71 °F 64 °F 46 °F (1998)
Cooling Degree Days 12    
Growing Degree Days 26 (Base 50)    
Moisture  
Dew Point 69 °F    
Average Humidity 80    
Maximum Humidity 92    
Minimum Humidity 54    
Precipitation  
Precipitation 0.00 in - - ()
Sea Level Pressure  
Sea Level Pressure 30.01 in    
Wind  
Wind Speed 9 mph (SSE)    
Max Wind Speed 14 mph    
Max Gust Speed -    
Visibility 10 miles    
Events      
Averages and records for this station are not official NWS values.
T = Trace of Precipitation, MM = Missing Value Source: NWS Daily Summary

Daily Weather History Graph

Daily Weather History Graph

Search for Another Location

Airport or City:

Trip Planner

Search our weather history database for the weather conditions in past years. The results will help you decide how hot, cold, wet, or windy it might be!

Date:

Astronomy

Apr. 06, 2014 Rise Set
Actual Time 7:06 AM EDT 7:43 PM EDT
Civil Twilight 6:43 AM EDT 8:06 PM EDT
Nautical Twilight 6:15 AM EDT 8:34 PM EDT
Astronomical Twilight 5:47 AM EDT 9:03 PM EDT
Moon 12:22 PM EDT (4/6) 1:22 AM EDT (4/6)
Length of Visible Light 13h 23m
Length of Day
12h 36m
Waxing Crescent, 43% of the Moon is Illuminated
Apr 6
Waxing Crescent
Apr 7
First Quarter
Apr 15
Full
Apr 22
Last Quarter
Apr 29
New

Hourly Weather History & Observations

Time (EDT) Temp. Heat Index Dew Point Humidity Pressure Visibility Wind Dir Wind Speed Gust Speed Precip Events Conditions
12:58 AM 73.2 °F - 69.1 °F 87% 30.06 in 10.0 mi SSE 6.9 mph - N/A   Clear
1:58 AM 73.0 °F - 68.7 °F 86% 30.04 in 10.0 mi South 6.9 mph - N/A   Clear
2:58 AM 73.2 °F - 67.5 °F 82% 30.04 in 10.0 mi South 6.9 mph - N/A   Clear
3:58 AM 72.9 °F - 67.3 °F 83% 30.03 in 10.0 mi SSE 4.6 mph - N/A   Clear
4:58 AM 72.3 °F - 67.6 °F 85% 30.01 in 10.0 mi SSE 6.9 mph - N/A   Clear
5:58 AM 72.0 °F - 68.4 °F 88% 30.01 in 10.0 mi SSE 6.9 mph - N/A   Clear
6:58 AM 71.4 °F - 68.2 °F 89% 30.01 in 10.0 mi South 8.1 mph - N/A   Clear
7:58 AM 71.4 °F - 68.9 °F 92% 30.03 in 10.0 mi South 10.4 mph - N/A   Clear
9:58 AM 77.4 °F - 67.3 °F 71% 30.01 in 10.0 mi SSW 11.5 mph - N/A   Clear
10:58 AM 79.7 °F - 65.8 °F 62% 30.03 in 10.0 mi SSW 11.5 mph - N/A   Clear
11:58 AM 82.8 °F 84.3 °F 64.6 °F 54% 30.03 in 10.0 mi SSW 10.4 mph - N/A   Clear
12:58 PM 79.9 °F - 68.7 °F 69% 30.03 in 10.0 mi SE 8.1 mph - N/A   Clear
1:58 PM 79.5 °F - 70.2 °F 73% 30.01 in 10.0 mi SSE 12.7 mph - N/A   Clear
2:58 PM 79.3 °F - 70.2 °F 73% 29.99 in 10.0 mi SSE 13.8 mph - N/A   Clear
3:58 PM 79.2 °F - 70.5 °F 75% 29.99 in 10.0 mi SE 11.5 mph - N/A   Clear
4:58 PM 78.1 °F - 70.5 °F 77% 29.98 in 10.0 mi SE 12.7 mph - N/A   Clear
5:58 PM 77.4 °F - 70.7 °F 80% 29.96 in 10.0 mi SE 11.5 mph - N/A   Clear
6:58 PM 75.9 °F - 70.7 °F 84% 29.98 in 10.0 mi SE 10.4 mph - N/A   Clear
7:58 PM 74.1 °F - 70.2 °F 87% 29.98 in 10.0 mi SE 10.4 mph - N/A   Clear
8:58 PM 74.1 °F - 70.3 °F 88% 29.99 in 10.0 mi SSE 12.7 mph - N/A   Clear
9:58 PM 74.1 °F - 70.3 °F 88% 29.99 in 10.0 mi SSE 12.7 mph - N/A   Clear
10:58 PM 73.9 °F - 70.3 °F 88% 30.01 in 10.0 mi SSE 13.8 mph - N/A   Clear
11:58 PM 73.8 °F - 70.3 °F 89% 29.99 in 10.0 mi SSE 12.7 mph - N/A   Clear